Terug naar catalogus

COSMOS 2095

ActiefMilitairPO
NORAD 20740·PAYLOAD·🇷🇺 Russia

Gelanceerd Aug 8, 1990 vanaf Plesetsk Cosmodrome

Loading…

Volgende Passages (komende 24 uur)

TLE

VersSource: Space-Track

Epoch: Sep 14, 2026, 06:36 UTC

1 20740U 90070F   26257.27546425  .00000020  00000-0  47469-4 0  9992
2 20740  82.5739 210.2199 0019327 169.1998 354.4235 12.66143385668306

Volg COSMOS 2095 in realtime met AllMySat

Download on the App Store